Weather in Davletovo

Russia / Republic of Bashkortostan     53°20′57″N   58°40′33″E
temp.,
°C
wind,
m/s
gust,
m/s
humid.,
%
clouds,
%
prec.,
mm/h
press.,
hPa
HPBL,
m
1 march, mon
mon123:00−13n339693 0.5 100879
02:00−15n239694 0.1 101024
05:00−17n229791 0.1 101220
08:00−17ne119795 0.2 101420
11:00−14ene119393 0.3 1015164
14:00−13sse119097 0.0 1016225
17:00−12sse229498 0.1 1016191
20:00−13s239694 0.1 101748
2 march, tue
tue223:00−13ssw129494 0.1 101820
02:00−15wnw119299 0.0 101720
05:00−17wsw238991 0.0 101820
08:00−20w33900 0.0 101732
11:00−15wsw38860 0.0 1016284
14:00−10wsw488133 0.0 1013468
17:00−9sw5108566 0.0 1011598
20:00−12sw51388100 0.0 1010607
3 march, wed
wed323:00−14ssw4988100 0.0 1009263
02:00−11ssw489199 0.0 1006179
05:00−6ssw5128799 0.0 1004639
08:00−7sw51287100 0.0 1002395
11:00−4sw51186100 0.0 1002655
14:00−1sw588498 0.0 1002888
17:00−2wsw378799 0.1 1002315
20:00−6wsw3486100 0.0 100229
4 march, thu
thu423:00−9w338973 0.0 100321
02:00−11w338991 0.0 100227
05:00−12w348888 0.0 100366
08:00−12w48870 0.0 1005152
11:00−8wnw6118226 0.0 1006552
14:00−7w597911 0.0 10071033
17:00−8w498242 0.0 1008339
20:00−12sw478612 0.0 1009110
5 march, fri
fri523:00−10sw5148649 0.0 1010477
02:00−9sw61584100 0.0 1008630
05:00−7ssw7168597 0.0 1005661
08:00−4sw71785100 0.0 1003950
11:00−2sw10207792 0.0 10031238
14:00−1wsw10187865 0.0 10041311
17:00−1wsw7158074 0.0 1007962
20:00−6wsw6166981 0.4 1010469